Weather History for KAFO - April, 2014

Change the Weather History Date:

Tuesday, April 29, 2014

  Actual Average Record
Temperature  
Mean Temperature 32 °F -  
Max Temperature 46 °F 56 °F 69 °F (2015)
Min Temperature 19 °F 26 °F 19 °F (2014)
Degree Days  
Heating Degree Days 32    
Moisture  
Dew Point 20 °F    
Average Humidity 63    
Maximum Humidity 93    
Minimum Humidity 34    
Precipitation  
Precipitation 0.00 in - - ()
Sea Level Pressure  
Sea Level Pressure 30.41 in    
Wind  
Wind Speed 4 mph (NNW)    
Max Wind Speed 22 mph    
Max Gust Speed 28 mph    
Visibility 10 miles    
Events      
Averages and records for this station are not official NWS values.
T = Trace of Precipitation, MM = Missing Value Source: NWS Daily Summary

Daily Weather History Graph

Daily Weather History Graph

Search for Another Location

Airport or City:

Trip Planner

Search our weather history database for the weather conditions in past years. The results will help you decide how hot, cold, wet, or windy it might be!

Date:

Astronomy

Apr. 29, 2014 Rise Set
Actual Time 6:20 AM MDT 8:22 PM MDT
Civil Twilight 5:50 AM MDT 8:52 PM MDT
Nautical Twilight 5:12 AM MDT 9:30 PM MDT
Astronomical Twilight 4:31 AM MDT 10:11 PM MDT
Moon 6:41 AM MDT (4/29) 9:06 PM MDT (4/29)
Length of Visible Light 15h 02m
Length of Day
14h 01m
New Moon, 0% of the Moon is Illuminated
Apr 29
New Moon
May 6
First Quarter
May 14
Full
May 21
Last Quarter
May 28
New

Hourly Weather History & Observations

Time (MDT) Temp. Windchill Dew Point Humidity Pressure Visibility Wind Dir Wind Speed Gust Speed Precip Events Conditions
12:15 AM 26.6 °F - 21.2 °F 80% 30.30 in 10.0 mi Calm Calm - N/A   Clear
12:35 AM 24.8 °F - 21.2 °F 86% 30.31 in 10.0 mi Calm Calm - N/A   Clear
12:55 AM 23.0 °F - 19.4 °F 86% 30.31 in 10.0 mi Calm Calm - N/A   Clear
1:15 AM 23.0 °F - 19.4 °F 86% 30.32 in 10.0 mi Calm Calm - N/A   Clear
1:35 AM 23.0 °F - 19.4 °F 86% 30.32 in 10.0 mi Calm Calm - N/A   Clear
1:55 AM 21.2 °F - 19.4 °F 93% 30.33 in 10.0 mi Calm Calm - N/A   Clear
2:15 AM 21.2 °F - 19.4 °F 93% 30.34 in 10.0 mi Calm Calm - N/A   Clear
2:35 AM 23.0 °F 18.4 °F 19.4 °F 86% 30.34 in 10.0 mi SSW 3.5 mph - N/A   Clear
3:15 AM 21.2 °F - 17.6 °F 86% 30.35 in 10.0 mi Calm Calm - N/A   Clear
3:35 AM 19.4 °F - 17.6 °F 93% 30.35 in 10.0 mi Calm Calm - N/A   Clear
3:55 AM 21.2 °F - 17.6 °F 86% 30.36 in 10.0 mi Calm Calm - N/A   Clear
4:15 AM 19.4 °F - 17.6 °F 93% 30.36 in 10.0 mi Calm Calm - N/A   Clear
4:35 AM 19.4 °F - 17.6 °F 93% 30.37 in 10.0 mi Calm Calm - N/A   Clear
4:55 AM 19.4 °F - 17.6 °F 93% 30.37 in 10.0 mi Calm Calm - N/A   Clear
5:15 AM 19.4 °F - 17.6 °F 93% 30.37 in 10.0 mi Calm Calm - N/A   Clear
5:35 AM 19.4 °F - 17.6 °F 93% 30.37 in 10.0 mi Calm Calm - N/A   Clear
5:55 AM 19.4 °F - 15.8 °F 86% 30.38 in 10.0 mi Calm Calm - N/A   Clear
6:15 AM 19.4 °F 14.3 °F 15.8 °F 86% 30.39 in 10.0 mi SE 3.5 mph - N/A   Clear
6:55 AM 19.4 °F - 15.8 °F 86% 30.40 in 10.0 mi Calm Calm - N/A   Clear
7:15 AM 19.4 °F - 15.8 °F 86% 30.40 in 10.0 mi Calm Calm - N/A   Clear
7:35 AM 21.2 °F - 17.6 °F 86% 30.41 in 10.0 mi Calm Calm - N/A   Scattered Clouds
7:55 AM 23.0 °F - 19.4 °F 86% 30.42 in 10.0 mi Calm Calm - N/A   Scattered Clouds
8:15 AM 24.8 °F - 19.4 °F 80% 30.42 in 10.0 mi Calm Calm - N/A   Clear
8:35 AM 26.6 °F - 19.4 °F 74% 30.43 in 10.0 mi Calm Calm - N/A   Clear
8:55 AM 28.4 °F - 21.2 °F 74% 30.43 in 10.0 mi Calm Calm - N/A   Clear
9:15 AM 30.2 °F 26.7 °F 21.2 °F 69% 30.44 in 10.0 mi North 3.5 mph - N/A   Clear
9:35 AM 30.2 °F 25.4 °F 23.0 °F 75% 30.44 in 10.0 mi North 4.6 mph - N/A   Clear
9:55 AM 32.0 °F 27.5 °F 23.0 °F 69% 30.43 in 10.0 mi North 4.6 mph - N/A   Clear
10:15 AM 32.0 °F 24.8 °F 23.0 °F 69% 30.43 in 10.0 mi North 8.1 mph - N/A   Clear
10:35 AM 33.8 °F 24.8 °F 23.0 °F 65% 30.43 in 10.0 mi North 12.7 mph 16.1 mph N/A   Clear
10:55 AM 35.6 °F 27.1 °F 21.2 °F 56% 30.43 in 10.0 mi North 12.7 mph 18.4 mph N/A   Clear
11:15 AM 37.4 °F 28.2 °F 21.2 °F 52% 30.43 in 10.0 mi NW 16.1 mph 19.6 mph N/A   Clear
11:35 AM 37.4 °F 30.3 °F 19.4 °F 48% 30.43 in 10.0 mi NNW 10.4 mph 17.3 mph N/A   Clear
11:55 AM 37.4 °F 30.3 °F 19.4 °F 48% 30.42 in 10.0 mi North 10.4 mph 18.4 mph N/A   Clear
12:15 PM 39.2 °F 33.6 °F 17.6 °F 42% 30.42 in 10.0 mi NNW 8.1 mph 18.4 mph N/A   Scattered Clouds
12:35 PM 39.2 °F 32.5 °F 15.8 °F 39% 30.42 in 10.0 mi NNW 10.4 mph 18.4 mph N/A   Scattered Clouds
12:55 PM 41.0 °F 33.5 °F 17.6 °F 39% 30.43 in 10.0 mi NNW 13.8 mph 25.3 mph N/A   Scattered Clouds
1:15 PM 41.0 °F 34.3 °F 17.6 °F 39% 30.42 in 10.0 mi North 11.5 mph 16.1 mph N/A   Scattered Clouds
1:35 PM 41.0 °F 33.9 °F 17.6 °F 39% 30.42 in 10.0 mi NNW 12.7 mph 21.9 mph N/A   Scattered Clouds
1:55 PM 41.0 °F 33.9 °F 17.6 °F 39% 30.41 in 10.0 mi NNW 12.7 mph 16.1 mph N/A   Scattered Clouds
2:15 PM 42.8 °F 34.8 °F 17.6 °F 36% 30.41 in 10.0 mi North 17.3 mph 20.7 mph N/A   Scattered Clouds
2:35 PM 42.8 °F 36.2 °F 19.4 °F 39% 30.41 in 10.0 mi NW 12.7 mph 20.7 mph N/A   Scattered Clouds
2:55 PM 42.8 °F 35.4 °F 17.6 °F 36% 30.41 in 10.0 mi NNW 15.0 mph 20.7 mph N/A   Scattered Clouds
3:15 PM 44.6 °F 38.4 °F 19.4 °F 37% 30.42 in 10.0 mi NW 12.7 mph 20.7 mph N/A   Clear
3:35 PM 44.6 °F 39.2 °F 17.6 °F 34% 30.41 in 10.0 mi North 10.4 mph 23.0 mph N/A   Clear
3:55 PM 44.6 °F 38.4 °F 19.4 °F 37% 30.41 in 10.0 mi NNW 12.7 mph 21.9 mph N/A   Clear
4:15 PM 44.6 °F 37.8 °F 19.4 °F 37% 30.41 in 10.0 mi NNW 15.0 mph 21.9 mph N/A   Scattered Clouds
4:35 PM 44.6 °F 38.8 °F 19.4 °F 37% 30.41 in 10.0 mi NNW 11.5 mph 20.7 mph N/A   Scattered Clouds
4:55 PM 42.8 °F 35.8 °F 19.4 °F 39% 30.42 in 10.0 mi NW 13.8 mph - N/A   Scattered Clouds
5:15 PM 42.8 °F 35.8 °F 19.4 °F 39% 30.42 in 10.0 mi NW 13.8 mph 23.0 mph N/A   Scattered Clouds
5:35 PM 46.4 °F 39.5 °F 21.2 °F 37% 30.42 in 10.0 mi NNW 17.3 mph - N/A   Scattered Clouds
5:55 PM 44.6 °F 38.4 °F 19.4 °F 37% 30.42 in 10.0 mi NW 12.7 mph 18.4 mph N/A   Scattered Clouds
6:15 PM 44.6 °F 37.2 °F 19.4 °F 37% 30.42 in 10.0 mi NW 17.3 mph 24.2 mph N/A   Scattered Clouds
6:35 PM 44.6 °F 36.1 °F 21.2 °F 39% 30.42 in 10.0 mi NNW 21.9 mph 27.6 mph N/A   Scattered Clouds
6:55 PM 44.6 °F 38.1 °F 21.2 °F 39% 30.42 in 10.0 mi NNW 13.8 mph 25.3 mph N/A   Scattered Clouds
7:15 PM 42.8 °F 35.8 °F 21.2 °F 42% 30.43 in 10.0 mi NNW 13.8 mph 23.0 mph N/A   Clear
7:35 PM 41.0 °F 32.8 °F 21.2 °F 45% 30.43 in 10.0 mi North 16.1 mph 21.9 mph N/A   Clear
7:55 PM 39.2 °F 32.5 °F 21.2 °F 49% 30.44 in 10.0 mi NNW 10.4 mph - N/A   Clear
8:15 PM 37.4 °F 26.9 °F 21.2 °F 52% 30.44 in 10.0 mi NNW 20.7 mph 26.5 mph N/A   Clear
8:35 PM 35.6 °F 29.2 °F 23.0 °F 60% 30.44 in 10.0 mi North 8.1 mph - N/A   Scattered Clouds
8:55 PM 35.6 °F 29.9 °F 23.0 °F 60% 30.44 in 10.0 mi North 6.9 mph - N/A   Clear
9:15 PM 37.4 °F 30.3 °F 21.2 °F 52% 30.45 in 10.0 mi North 10.4 mph - N/A   Clear
9:35 PM 33.8 °F 30.8 °F 21.2 °F 60% 30.45 in 10.0 mi North 3.5 mph - N/A   Clear
9:55 PM 33.8 °F - 21.2 °F 60% 30.46 in 10.0 mi Calm Calm - N/A   Clear
10:15 PM 33.8 °F 30.8 °F 21.2 °F 60% 30.46 in 10.0 mi North 3.5 mph - N/A   Clear
10:35 PM 32.0 °F 26.4 °F 21.2 °F 64% 30.46 in 10.0 mi North 5.8 mph - N/A   Clear
10:55 PM 32.0 °F 28.7 °F 21.2 °F 64% 30.47 in 10.0 mi NNE 3.5 mph - N/A   Clear
11:15 PM 32.0 °F - 21.2 °F 64% 30.47 in 10.0 mi Calm Calm - N/A   Clear
11:35 PM 32.0 °F - 21.2 °F 64% 30.47 in 10.0 mi Calm Calm - N/A   Clear
11:55 PM 30.2 °F - 21.2 °F 69% 30.48 in 10.0 mi Calm Calm - N/A   Clear